,time,measurement,value
0,2022-09-23 06:29:46,air,89.0
1,2022-09-23 06:30:54,air,93.0
2,2022-09-23 06:32:03,air,95.0
3,2022-09-23 06:33:12,air,96.0
4,2022-09-23 06:34:21,air,97.0
5,2022-09-23 06:35:30,air,98.0
6,2022-09-23 06:36:40,air,98.0
7,2022-09-23 06:37:49,air,98.0
8,2022-09-23 06:38:59,air,98.0
9,2022-09-23 06:40:07,air,98.0
10,2022-09-23 06:41:16,air,98.0
11,2022-09-23 06:43:23,air,99.0
12,2022-09-23 06:46:16,air,99.0
13,2022-09-23 06:47:25,air,99.0
14,2022-09-23 06:48:34,air,99.0
15,2022-09-23 06:49:44,air,99.0
16,2022-09-23 06:52:56,air,98.0
17,2022-09-23 06:54:06,air,98.0
18,2022-09-23 06:55:15,air,98.0
19,2022-09-23 06:56:25,air,98.0
20,2022-09-23 06:57:34,air,98.0
21,2022-09-23 06:58:43,air,98.0
22,2022-09-23 06:59:53,air,98.0
23,2022-09-23 07:01:02,air,98.0
24,2022-09-23 07:02:12,air,98.0
25,2022-09-23 07:03:21,air,98.0
26,2022-09-23 07:04:31,air,98.0
27,2022-09-23 07:05:39,air,99.0
28,2022-09-23 07:06:49,air,98.0
29,2022-09-23 07:07:58,air,98.0
30,2022-09-23 07:09:07,air,98.0
31,2022-09-23 07:10:17,air,98.0
32,2022-09-23 07:11:25,air,99.0
33,2022-09-23 07:12:35,air,98.0
34,2022-09-23 07:13:44,air,98.0
35,2022-09-23 07:14:54,air,94.0
36,2022-09-23 07:16:03,air,95.0
37,2022-09-23 07:17:13,air,95.0
38,2022-09-23 07:18:22,air,96.0
39,2022-09-23 07:19:31,air,97.0
40,2022-09-23 07:48:19,air,96.0
41,2022-09-23 07:49:29,air,97.0
42,2022-09-23 07:50:38,air,97.0
43,2022-09-23 07:51:47,air,98.0
44,2022-09-23 07:52:57,air,98.0
45,2022-09-23 07:54:06,air,97.0
46,2022-09-23 07:55:16,air,98.0
47,2022-09-23 07:56:25,air,98.0
48,2022-09-23 07:57:34,air,98.0
49,2022-09-23 07:58:44,air,97.0
50,2022-09-23 07:59:53,air,97.0
51,2022-09-23 08:01:03,air,97.0
52,2022-09-23 08:02:12,air,98.0
53,2022-09-23 08:03:22,air,98.0
54,2022-09-23 08:04:31,air,98.0
55,2022-09-23 08:05:41,air,98.0
56,2022-09-23 08:06:50,air,98.0
57,2022-09-23 08:07:59,air,98.0
58,2022-09-23 08:09:09,air,98.0
59,2022-09-23 08:10:18,air,98.0
60,2022-09-23 08:11:27,air,98.0
61,2022-09-23 08:12:36,air,98.0
62,2022-09-23 08:13:46,air,98.0
63,2022-09-23 08:14:55,air,98.0
64,2022-09-23 08:16:05,air,98.0
65,2022-09-23 08:17:14,air,97.0
66,2022-09-23 08:18:24,air,97.0
67,2022-09-23 08:19:33,air,97.0
68,2022-09-23 08:20:42,air,97.0
69,2022-09-23 08:21:51,air,97.0
70,2022-09-23 08:23:01,air,98.0
71,2022-09-23 08:24:10,air,97.0
72,2022-09-23 08:25:19,air,97.0
73,2022-09-23 08:26:29,air,97.0
74,2022-09-23 08:27:38,air,97.0
75,2022-09-23 08:28:47,air,97.0
76,2022-09-23 08:29:56,air,98.0
77,2022-09-23 08:31:06,air,98.0
78,2022-09-23 08:32:14,air,97.0
79,2022-09-23 08:33:24,air,98.0
80,2022-09-23 08:34:33,air,97.0
81,2022-09-23 08:35:43,air,97.0
82,2022-09-23 08:36:52,air,97.0
83,2022-09-23 08:38:01,air,98.0
84,2022-09-23 08:39:10,air,98.0
85,2022-09-23 08:40:20,air,97.0
86,2022-09-23 08:41:29,air,98.0
87,2022-09-23 08:42:38,air,98.0
88,2022-09-23 08:43:47,air,97.0
89,2022-09-23 08:44:56,air,97.0
90,2022-09-23 08:46:05,air,98.0
91,2022-09-23 08:47:14,air,97.0
92,2022-09-23 08:48:23,air,97.0
93,2022-09-23 08:49:32,air,97.0
94,2022-09-23 08:50:42,air,98.0
95,2022-09-23 08:51:50,air,97.0
96,2022-09-23 08:53:00,air,98.0
97,2022-09-23 08:54:09,air,97.0
98,2022-09-23 08:55:19,air,98.0
99,2022-09-23 08:56:27,air,97.0
100,2022-09-23 08:57:37,air,98.0
101,2022-09-23 08:58:46,air,98.0
102,2022-09-23 08:59:56,air,98.0
103,2022-09-23 09:01:04,air,98.0
104,2022-09-23 09:02:14,air,98.0
105,2022-09-23 09:03:23,air,98.0
106,2022-09-23 09:04:32,air,98.0
107,2022-09-23 09:05:41,air,98.0
108,2022-09-23 09:06:51,air,98.0
109,2022-09-23 09:08:00,air,98.0
110,2022-09-23 09:09:09,air,98.0
111,2022-09-23 09:10:19,air,98.0
112,2022-09-23 09:11:27,air,98.0
113,2022-09-23 09:12:37,air,98.0
114,2022-09-23 09:13:46,air,98.0
115,2022-09-23 09:14:56,air,98.0
116,2022-09-23 09:16:05,air,98.0
117,2022-09-23 09:17:15,air,98.0
118,2022-09-23 09:18:24,air,98.0
119,2022-09-23 09:19:34,air,98.0
120,2022-09-23 09:20:43,air,98.0
121,2022-09-23 09:21:52,air,98.0
122,2022-09-23 09:23:02,air,98.0
123,2022-09-23 09:24:11,air,98.0
124,2022-09-23 09:25:21,air,98.0
125,2022-09-23 09:26:30,air,98.0
126,2022-09-23 09:27:40,air,98.0
127,2022-09-23 09:28:49,air,98.0
128,2022-09-23 09:29:58,air,98.0
129,2022-09-23 09:31:08,air,98.0
130,2022-09-23 09:32:17,air,98.0
131,2022-09-23 09:33:27,air,98.0
132,2022-09-23 09:34:36,air,98.0
133,2022-09-23 09:35:46,air,98.0
134,2022-09-23 09:36:55,air,98.0
135,2022-09-23 09:38:05,air,98.0
136,2022-09-23 09:39:14,air,98.0
137,2022-09-23 09:40:24,air,98.0
138,2022-09-23 09:41:33,air,98.0
139,2022-09-23 09:42:42,air,98.0
140,2022-09-23 09:43:52,air,98.0
141,2022-09-23 09:45:01,air,98.0
142,2022-09-23 09:46:11,air,98.0
143,2022-09-23 09:47:20,air,98.0
144,2022-09-23 09:48:30,air,98.0
145,2022-09-23 09:49:39,air,98.0
146,2022-09-23 09:50:49,air,96.0
147,2022-09-23 09:51:58,air,84.0
148,2022-09-23 09:53:07,air,85.0
149,2022-09-23 09:54:17,air,91.0
150,2022-09-23 09:55:26,air,91.0
151,2022-09-23 09:56:36,air,90.0
152,2022-09-23 09:57:45,air,92.0
153,2022-09-23 09:58:55,air,94.0
154,2022-09-23 10:00:04,air,94.0
155,2022-09-23 10:01:14,air,90.0
156,2022-09-23 10:02:23,air,92.0
157,2022-09-23 10:03:32,air,92.0
158,2022-09-23 10:04:42,air,92.0
159,2022-09-23 10:05:51,air,92.0
160,2022-09-23 10:07:01,air,93.0
161,2022-09-23 10:08:10,air,94.0
162,2022-09-23 10:09:20,air,94.0
163,2022-09-23 10:10:29,air,92.0
164,2022-09-23 10:11:39,air,95.0
165,2022-09-23 10:12:48,air,95.0
166,2022-09-23 10:13:58,air,94.0
167,2022-09-23 10:15:07,air,95.0
168,2022-09-23 10:16:16,air,95.0
169,2022-09-23 10:17:26,air,96.0
170,2022-09-23 10:18:35,air,96.0
171,2022-09-23 10:19:45,air,94.0
172,2022-09-23 10:20:54,air,95.0
173,2022-09-23 10:22:04,air,94.0
174,2022-09-23 10:23:13,air,94.0
175,2022-09-23 10:24:23,air,94.0
176,2022-09-23 10:25:32,air,95.0
177,2022-09-23 10:26:41,air,94.0
178,2022-09-23 10:27:51,air,94.0
179,2022-09-23 10:29:00,air,94.0
180,2022-09-23 10:30:10,air,93.0
181,2022-09-23 10:31:19,air,93.0
182,2022-09-23 10:32:29,air,94.0
183,2022-09-23 10:33:38,air,94.0
184,2022-09-23 10:34:48,air,93.0
185,2022-09-23 10:35:57,air,93.0
186,2022-09-23 10:37:06,air,94.0
187,2022-09-23 10:38:16,air,93.0
188,2022-09-23 10:39:25,air,91.0
189,2022-09-23 10:40:35,air,92.0
190,2022-09-23 10:41:44,air,90.0
191,2022-09-23 10:42:54,air,92.0
192,2022-09-23 10:44:03,air,92.0
193,2022-09-23 10:45:13,air,91.0
194,2022-09-23 10:46:22,air,93.0
195,2022-09-23 10:47:31,air,93.0
196,2022-09-23 10:48:41,air,92.0
197,2022-09-23 10:49:50,air,90.0
198,2022-09-23 10:50:59,air,91.0
199,2022-09-23 10:52:08,air,91.0
200,2022-09-23 10:53:18,air,90.0
201,2022-09-23 10:54:27,air,90.0
202,2022-09-23 10:55:37,air,92.0
203,2022-09-23 10:56:46,air,92.0
204,2022-09-23 10:57:56,air,93.0
205,2022-09-23 10:59:05,air,91.0
206,2022-09-23 11:00:14,air,92.0
207,2022-09-23 11:01:24,air,93.0
208,2022-09-23 11:02:33,air,93.0
209,2022-09-23 11:03:43,air,93.0
210,2022-09-23 11:04:51,air,93.0
211,2022-09-23 11:06:01,air,92.0
212,2022-09-23 11:07:10,air,93.0
213,2022-09-23 11:08:20,air,93.0
214,2022-09-23 11:09:29,air,93.0
215,2022-09-23 11:10:39,air,92.0
216,2022-09-23 11:11:48,air,93.0
217,2022-09-23 11:12:57,air,93.0
218,2022-09-23 11:14:07,air,92.0
219,2022-09-23 11:15:16,air,92.0
220,2022-09-23 11:16:26,air,92.0
221,2022-09-23 11:17:34,air,93.0
222,2022-09-23 11:18:44,air,93.0
223,2022-09-23 11:19:53,air,92.0
224,2022-09-23 11:21:03,air,89.0
225,2022-09-23 11:22:12,air,92.0
226,2022-09-23 11:23:22,air,90.0
227,2022-09-23 11:24:31,air,92.0
228,2022-09-23 11:25:41,air,92.0
229,2022-09-23 11:26:50,air,91.0
230,2022-09-23 11:28:00,air,91.0
231,2022-09-23 11:29:09,air,92.0
232,2022-09-23 11:30:18,air,91.0
233,2022-09-23 11:31:28,air,91.0
234,2022-09-23 11:32:36,air,90.0
235,2022-09-23 11:33:46,air,91.0
236,2022-09-23 11:34:55,air,90.0
237,2022-09-23 11:36:05,air,89.0
238,2022-09-23 11:37:14,air,90.0
239,2022-09-23 11:38:23,air,91.0
240,2022-09-23 11:39:32,air,91.0
241,2022-09-23 11:40:42,air,91.0
242,2022-09-23 11:41:51,air,89.0
243,2022-09-23 11:43:00,air,91.0
244,2022-09-23 11:44:10,air,91.0
245,2022-09-23 11:45:19,air,92.0
246,2022-09-23 11:46:28,air,91.0
247,2022-09-23 11:47:37,air,92.0
248,2022-09-23 11:48:47,air,94.0
249,2022-09-23 11:49:56,air,94.0
250,2022-09-23 11:51:06,air,94.0
251,2022-09-23 11:52:15,air,94.0
252,2022-09-23 11:53:24,air,93.0
253,2022-09-23 11:54:33,air,94.0
254,2022-09-23 11:55:43,air,93.0
255,2022-09-23 11:56:52,air,94.0
256,2022-09-23 11:58:02,air,93.0
257,2022-09-23 11:59:11,air,93.0
258,2022-09-23 12:00:20,air,93.0
259,2022-09-23 12:01:30,air,93.0
260,2022-09-23 12:02:39,air,94.0
261,2022-09-23 12:03:48,air,94.0
262,2022-09-23 12:04:57,air,94.0
263,2022-09-23 12:06:07,air,93.0
264,2022-09-23 12:07:16,air,94.0
265,2022-09-23 12:08:26,air,94.0
266,2022-09-23 12:09:35,air,94.0
267,2022-09-23 12:10:45,air,94.0
268,2022-09-23 12:11:54,air,94.0
269,2022-09-23 12:13:04,air,93.0
270,2022-09-23 12:14:13,air,94.0
271,2022-09-23 12:15:22,air,94.0
272,2022-09-23 12:16:32,air,94.0
273,2022-09-23 12:17:41,air,94.0
274,2022-09-23 12:18:51,air,94.0
275,2022-09-23 12:20:00,air,94.0
276,2022-09-23 12:21:10,air,94.0
277,2022-09-23 12:22:19,air,95.0
278,2022-09-23 12:23:29,air,94.0
279,2022-09-23 12:24:38,air,94.0
280,2022-09-23 12:25:47,air,93.0
281,2022-09-23 12:26:57,air,94.0
282,2022-09-23 12:28:06,air,95.0
283,2022-09-23 12:29:16,air,95.0
284,2022-09-23 12:30:25,air,93.0
285,2022-09-23 12:31:34,air,93.0
286,2022-09-23 12:32:43,air,94.0
287,2022-09-23 12:33:53,air,94.0
288,2022-09-23 12:35:02,air,94.0
289,2022-09-23 12:36:11,air,94.0
290,2022-09-23 12:37:21,air,95.0
291,2022-09-23 12:38:29,air,95.0
292,2022-09-23 12:39:39,air,95.0
293,2022-09-23 12:40:48,air,94.0
294,2022-09-23 12:41:58,air,94.0
295,2022-09-23 12:43:07,air,95.0
296,2022-09-23 12:44:17,air,95.0
297,2022-09-23 12:45:26,air,94.0
298,2022-09-23 12:46:36,air,93.0
299,2022-09-23 12:47:45,air,95.0
300,2022-09-23 12:48:55,air,94.0
301,2022-09-23 12:50:04,air,95.0
302,2022-09-23 12:51:13,air,95.0
303,2022-09-23 12:52:23,air,94.0
304,2022-09-23 12:53:32,air,95.0
305,2022-09-23 12:54:42,air,95.0
306,2022-09-23 12:55:51,air,94.0
307,2022-09-23 12:57:01,air,95.0
308,2022-09-23 12:58:10,air,95.0
309,2022-09-23 12:59:19,air,94.0
310,2022-09-23 13:00:29,air,94.0
311,2022-09-23 13:01:38,air,95.0
312,2022-09-23 13:02:47,air,95.0
313,2022-09-23 13:03:56,air,94.0
314,2022-09-23 13:05:06,air,95.0
315,2022-09-23 13:06:15,air,95.0
316,2022-09-23 13:07:25,air,94.0
317,2022-09-23 13:08:33,air,95.0
318,2022-09-23 13:09:43,air,95.0
319,2022-09-23 13:10:52,air,94.0
320,2022-09-23 13:12:01,air,94.0
321,2022-09-23 13:13:10,air,95.0
322,2022-09-23 13:14:20,air,95.0
323,2022-09-23 13:15:29,air,95.0
324,2022-09-23 13:16:38,air,95.0
325,2022-09-23 13:17:48,air,94.0
326,2022-09-23 13:18:57,air,95.0
327,2022-09-23 13:20:07,air,94.0
328,2022-09-23 13:21:16,air,95.0
329,2022-09-23 13:22:26,air,95.0
330,2022-09-23 13:23:35,air,95.0
331,2022-09-23 13:24:45,air,95.0
332,2022-09-23 13:25:54,air,95.0
333,2022-09-23 13:27:03,air,96.0
334,2022-09-23 13:28:13,air,94.0
335,2022-09-23 13:29:22,air,95.0
336,2022-09-23 13:30:31,air,95.0
337,2022-09-23 13:31:40,air,95.0
338,2022-09-23 13:32:50,air,96.0
339,2022-09-23 13:33:59,air,95.0
340,2022-09-23 13:35:09,air,95.0
341,2022-09-23 13:36:18,air,95.0
342,2022-09-23 13:37:28,air,95.0
343,2022-09-23 13:38:37,air,95.0
344,2022-09-23 13:39:47,air,94.0
345,2022-09-23 13:40:56,air,95.0
346,2022-09-23 13:42:06,air,95.0
347,2022-09-23 13:43:15,air,95.0
348,2022-09-23 13:44:24,air,96.0
349,2022-09-23 13:45:34,air,95.0
350,2022-09-23 13:46:43,air,96.0
351,2022-09-23 13:47:53,air,96.0
352,2022-09-23 13:49:02,air,94.0
353,2022-09-23 13:50:11,air,96.0
354,2022-09-23 13:51:20,air,96.0
355,2022-09-23 13:52:30,air,96.0
356,2022-09-23 13:53:39,air,95.0
357,2022-09-23 13:54:48,air,95.0
358,2022-09-23 13:55:57,air,96.0
359,2022-09-23 13:57:06,air,96.0
360,2022-09-23 13:58:16,air,96.0
361,2022-09-23 13:59:25,air,96.0
362,2022-09-23 14:00:35,air,96.0
363,2022-09-23 14:01:44,air,96.0
364,2022-09-23 14:02:54,air,96.0
365,2022-09-23 14:04:03,air,95.0
366,2022-09-23 14:05:13,air,96.0
367,2022-09-23 14:06:22,air,96.0
368,2022-09-23 14:07:31,air,96.0
369,2022-09-23 14:08:40,air,96.0
370,2022-09-23 14:09:49,air,95.0
371,2022-09-23 14:10:59,air,96.0
372,2022-09-23 14:12:08,air,96.0
373,2022-09-23 14:13:18,air,96.0
374,2022-09-23 14:14:27,air,96.0
375,2022-09-23 14:15:37,air,96.0
376,2022-09-23 14:16:46,air,96.0
377,2022-09-23 14:17:55,air,95.0
378,2022-09-23 14:19:05,air,96.0
379,2022-09-23 14:20:14,air,96.0
380,2022-09-23 14:21:23,air,95.0
381,2022-09-23 14:22:32,air,96.0
382,2022-09-23 14:23:42,air,96.0
383,2022-09-23 14:24:51,air,96.0
384,2022-09-23 14:26:01,air,95.0
385,2022-09-23 14:27:10,air,96.0
386,2022-09-23 14:28:20,air,95.0
387,2022-09-23 14:29:29,air,95.0
388,2022-09-23 14:30:39,air,96.0
389,2022-09-23 14:31:48,air,96.0
390,2022-09-23 14:32:57,air,96.0
391,2022-09-23 14:34:07,air,96.0
392,2022-09-23 14:35:16,air,96.0
393,2022-09-23 14:36:26,air,96.0
394,2022-09-23 14:37:35,air,96.0
395,2022-09-23 14:38:45,air,95.0
396,2022-09-23 14:39:54,air,95.0
397,2022-09-23 14:41:03,air,95.0
398,2022-09-23 14:42:13,air,96.0
399,2022-09-23 14:43:21,air,95.0
400,2022-09-23 14:44:31,air,95.0
401,2022-09-23 14:45:40,air,96.0
402,2022-09-23 14:46:50,air,96.0
403,2022-09-23 14:47:59,air,95.0
404,2022-09-23 14:49:09,air,96.0
405,2022-09-23 14:50:18,air,96.0
406,2022-09-23 14:51:28,air,95.0
407,2022-09-23 14:52:37,air,95.0
408,2022-09-23 14:53:46,air,96.0
409,2022-09-23 14:54:56,air,96.0
410,2022-09-23 14:56:05,air,96.0
411,2022-09-23 14:57:15,air,96.0
412,2022-09-23 14:58:24,air,96.0
413,2022-09-23 14:59:34,air,96.0
414,2022-09-23 15:00:43,air,96.0
415,2022-09-23 15:01:53,air,96.0
416,2022-09-23 15:03:02,air,96.0
417,2022-09-23 15:04:11,air,96.0
418,2022-09-23 15:05:21,air,96.0
419,2022-09-23 15:06:30,air,96.0
420,2022-09-23 15:07:40,air,96.0
421,2022-09-23 15:08:49,air,96.0
422,2022-09-23 15:09:59,air,96.0
423,2022-09-23 15:11:08,air,96.0
424,2022-09-23 15:12:18,air,96.0
425,2022-09-23 15:13:27,air,95.0
426,2022-09-23 15:14:36,air,95.0
427,2022-09-23 15:15:46,air,96.0
428,2022-09-23 15:16:55,air,96.0
429,2022-09-23 15:18:05,air,95.0
430,2022-09-23 15:19:14,air,96.0
431,2022-09-23 15:20:24,air,96.0
432,2022-09-23 15:21:33,air,96.0
433,2022-09-23 15:22:43,air,96.0
434,2022-09-23 15:23:52,air,96.0
435,2022-09-23 15:25:01,air,95.0
436,2022-09-23 15:26:11,air,95.0
437,2022-09-23 15:27:20,air,96.0
438,2022-09-23 15:28:30,air,96.0
439,2022-09-23 15:29:39,air,96.0
440,2022-09-23 15:30:49,air,95.0
441,2022-09-23 15:31:58,air,96.0
442,2022-09-23 15:33:08,air,96.0
443,2022-09-23 15:34:17,air,96.0
444,2022-09-23 15:35:26,air,96.0
445,2022-09-23 15:36:36,air,96.0
446,2022-09-23 15:37:45,air,96.0
447,2022-09-23 15:38:55,air,95.0
448,2022-09-23 15:40:04,air,96.0
449,2022-09-23 15:41:14,air,96.0
450,2022-09-23 15:42:23,air,96.0
451,2022-09-23 15:43:33,air,96.0
452,2022-09-23 15:44:42,air,96.0
453,2022-09-23 15:45:51,air,96.0
454,2022-09-23 15:47:01,air,95.0
455,2022-09-23 15:48:10,air,96.0
456,2022-09-23 15:49:20,air,96.0
457,2022-09-23 15:50:29,air,96.0
458,2022-09-23 15:51:39,air,96.0
459,2022-09-23 15:52:48,air,96.0
460,2022-09-23 15:53:57,air,96.0
461,2022-09-23 15:55:07,air,96.0
462,2022-09-23 15:56:16,air,96.0
463,2022-09-23 15:57:26,air,96.0
464,2022-09-23 15:58:35,air,96.0
465,2022-09-23 15:59:45,air,96.0
466,2022-09-23 16:00:54,air,96.0
467,2022-09-23 16:02:04,air,96.0
468,2022-09-23 16:03:13,air,96.0
469,2022-09-23 16:04:22,air,96.0
470,2022-09-23 16:05:32,air,96.0
471,2022-09-23 16:06:41,air,96.0
472,2022-09-23 16:07:51,air,96.0
473,2022-09-23 16:09:00,air,96.0
474,2022-09-23 16:10:10,air,96.0
475,2022-09-23 16:11:19,air,96.0
476,2022-09-23 16:12:28,air,96.0
477,2022-09-23 16:13:38,air,96.0
478,2022-09-23 16:14:47,air,96.0
479,2022-09-23 16:15:57,air,96.0
480,2022-09-23 16:17:06,air,97.0
481,2022-09-23 16:18:16,air,97.0
482,2022-09-23 16:19:25,air,96.0
483,2022-09-23 16:20:35,air,96.0
484,2022-09-23 16:21:44,air,96.0
485,2022-09-23 16:22:53,air,96.0
486,2022-09-23 16:24:03,air,96.0
487,2022-09-23 16:25:12,air,96.0
488,2022-09-23 16:26:22,air,96.0
489,2022-09-23 16:27:31,air,96.0
490,2022-09-23 16:28:41,air,96.0
491,2022-09-23 16:29:50,air,96.0
492,2022-09-23 16:30:59,air,96.0
493,2022-09-23 16:32:09,air,96.0
494,2022-09-23 16:33:18,air,96.0
495,2022-09-23 16:34:28,air,96.0
496,2022-09-23 16:35:37,air,96.0
497,2022-09-23 16:36:47,air,96.0
498,2022-09-23 16:37:56,air,96.0
499,2022-09-23 16:39:06,air,96.0
500,2022-09-23 16:40:15,air,96.0
501,2022-09-23 16:41:24,air,96.0
502,2022-09-23 16:42:34,air,96.0
503,2022-09-23 16:43:43,air,96.0
504,2022-09-23 16:44:53,air,97.0
505,2022-09-23 16:46:02,air,96.0
506,2022-09-23 16:47:12,air,96.0
507,2022-09-23 16:48:21,air,97.0
508,2022-09-23 16:49:30,air,97.0
509,2022-09-23 16:50:40,air,96.0
510,2022-09-23 16:51:49,air,96.0
511,2022-09-23 16:52:59,air,97.0
512,2022-09-23 16:54:08,air,97.0
513,2022-09-23 16:55:18,air,96.0
514,2022-09-23 16:56:27,air,97.0
515,2022-09-23 16:57:37,air,96.0
516,2022-09-23 16:58:46,air,96.0
517,2022-09-23 16:59:55,air,96.0
518,2022-09-23 17:01:05,air,96.0
519,2022-09-23 17:02:14,air,96.0
520,2022-09-23 17:03:24,air,96.0
521,2022-09-23 17:04:33,air,96.0
522,2022-09-23 17:05:43,air,96.0
523,2022-09-23 17:06:52,air,96.0
524,2022-09-23 17:08:01,air,96.0
525,2022-09-23 17:09:11,air,96.0
526,2022-09-23 17:10:20,air,96.0
527,2022-09-23 17:11:29,air,97.0
528,2022-09-23 17:12:38,air,97.0
529,2022-09-23 17:13:48,air,96.0
530,2022-09-23 17:14:57,air,96.0
531,2022-09-23 17:16:07,air,96.0
532,2022-09-23 17:17:16,air,96.0
533,2022-09-23 17:18:25,air,96.0
534,2022-09-23 17:19:35,air,96.0
535,2022-09-23 17:20:44,air,97.0
536,2022-09-23 17:21:54,air,97.0
537,2022-09-23 17:23:03,air,96.0
538,2022-09-23 17:24:13,air,97.0
539,2022-09-23 17:25:22,air,96.0
540,2022-09-23 17:26:31,air,96.0
541,2022-09-23 17:27:41,air,96.0
542,2022-09-23 17:28:50,air,97.0
543,2022-09-23 17:30:00,air,97.0
544,2022-09-23 17:31:09,air,97.0
545,2022-09-23 17:32:19,air,96.0
546,2022-09-23 17:33:28,air,96.0
547,2022-09-23 17:34:38,air,96.0
548,2022-09-23 17:35:47,air,96.0
549,2022-09-23 17:36:56,air,97.0
550,2022-09-23 17:38:06,air,96.0
551,2022-09-23 17:39:15,air,96.0
552,2022-09-23 17:40:25,air,96.0
553,2022-09-23 17:41:34,air,96.0
554,2022-09-23 17:42:44,air,96.0
555,2022-09-23 17:43:53,air,96.0
556,2022-09-23 17:45:02,air,97.0
557,2022-09-23 17:46:12,air,97.0
558,2022-09-23 17:47:21,air,96.0
559,2022-09-23 17:48:31,air,97.0
560,2022-09-23 17:49:40,air,97.0
561,2022-09-23 17:50:49,air,96.0
562,2022-09-23 17:51:59,air,96.0
563,2022-09-23 17:53:08,air,96.0
564,2022-09-23 17:54:18,air,97.0
565,2022-09-23 17:55:27,air,96.0
566,2022-09-23 17:56:37,air,97.0
567,2022-09-23 17:57:46,air,96.0
568,2022-09-23 17:58:56,air,96.0
569,2022-09-23 18:00:05,air,97.0
570,2022-09-23 18:01:15,air,97.0
571,2022-09-23 18:02:24,air,96.0
572,2022-09-23 18:03:33,air,97.0
573,2022-09-23 18:04:43,air,96.0
574,2022-09-23 18:05:52,air,97.0
575,2022-09-23 18:07:02,air,97.0
576,2022-09-23 18:08:11,air,97.0
577,2022-09-23 18:09:21,air,97.0
578,2022-09-23 18:10:30,air,96.0
579,2022-09-23 18:11:40,air,96.0
580,2022-09-23 18:12:49,air,96.0
581,2022-09-23 18:13:58,air,96.0
582,2022-09-23 18:15:08,air,96.0
583,2022-09-23 18:16:17,air,96.0
584,2022-09-23 18:17:27,air,97.0
585,2022-09-23 18:18:36,air,96.0
586,2022-09-23 18:19:46,air,96.0
587,2022-09-23 18:20:55,air,96.0
588,2022-09-23 18:22:04,air,97.0
589,2022-09-23 18:23:14,air,97.0
590,2022-09-23 18:24:23,air,97.0
591,2022-09-23 18:25:33,air,96.0
592,2022-09-23 18:26:42,air,97.0
593,2022-09-23 18:27:52,air,97.0
594,2022-09-23 18:29:01,air,96.0
595,2022-09-23 18:30:11,air,97.0
596,2022-09-23 18:31:20,air,97.0
597,2022-09-23 18:32:29,air,96.0
598,2022-09-23 18:33:39,air,96.0
599,2022-09-23 18:34:48,air,97.0
600,2022-09-23 18:35:58,air,97.0
601,2022-09-23 18:37:07,air,97.0
602,2022-09-23 18:38:17,air,96.0
603,2022-09-23 18:39:26,air,97.0
604,2022-09-23 18:40:36,air,97.0
605,2022-09-23 18:41:45,air,96.0
606,2022-09-23 18:42:54,air,96.0
607,2022-09-23 18:44:04,air,96.0
608,2022-09-23 18:45:13,air,96.0
609,2022-09-23 18:46:23,air,97.0
610,2022-09-23 18:47:32,air,97.0
611,2022-09-23 18:48:41,air,96.0
612,2022-09-23 18:49:51,air,96.0
613,2022-09-23 18:51:00,air,96.0
614,2022-09-23 18:52:10,air,97.0
615,2022-09-23 18:53:19,air,96.0
616,2022-09-23 18:54:29,air,97.0
617,2022-09-23 18:55:38,air,97.0
618,2022-09-23 18:56:48,air,96.0
619,2022-09-23 18:57:57,air,96.0
620,2022-09-23 18:59:06,air,97.0
621,2022-09-23 19:00:16,air,97.0
622,2022-09-23 19:01:25,air,96.0
623,2022-09-23 19:02:35,air,96.0
624,2022-09-23 19:03:44,air,96.0
625,2022-09-23 19:04:54,air,96.0
626,2022-09-23 19:06:03,air,96.0
627,2022-09-23 19:07:13,air,96.0
628,2022-09-23 19:08:22,air,97.0
629,2022-09-23 19:09:31,air,97.0
630,2022-09-23 19:10:41,air,97.0
631,2022-09-23 19:11:50,air,97.0
632,2022-09-23 19:13:00,air,96.0
633,2022-09-23 19:14:09,air,96.0
634,2022-09-23 19:15:39,air,96.0
635,2022-09-23 19:16:48,air,97.0
636,2022-09-23 19:17:58,air,97.0
637,2022-09-23 19:19:27,air,97.0
638,2022-09-23 19:20:37,air,96.0
639,2022-09-23 19:21:46,air,96.0
640,2022-09-23 19:22:55,air,96.0
641,2022-09-23 19:24:05,air,97.0
642,2022-09-23 19:25:14,air,96.0
643,2022-09-23 19:26:24,air,96.0
644,2022-09-23 19:27:33,air,96.0
645,2022-09-23 19:28:43,air,97.0
646,2022-09-23 19:29:52,air,96.0
647,2022-09-23 19:31:01,air,97.0
648,2022-09-23 19:32:11,air,96.0
649,2022-09-23 19:33:20,air,97.0
650,2022-09-23 19:34:30,air,97.0
651,2022-09-23 19:35:39,air,97.0
652,2022-09-23 19:36:49,air,97.0
653,2022-09-23 19:37:58,air,96.0
654,2022-09-23 19:39:07,air,96.0
655,2022-09-23 19:40:17,air,96.0
656,2022-09-23 19:41:26,air,96.0
657,2022-09-23 19:42:36,air,96.0
658,2022-09-23 19:43:45,air,97.0
659,2022-09-23 19:44:55,air,96.0
660,2022-09-23 19:46:04,air,97.0
661,2022-09-23 19:47:14,air,97.0
662,2022-09-23 19:48:23,air,97.0
663,2022-09-23 19:49:32,air,97.0
664,2022-09-23 19:50:42,air,96.0
665,2022-09-23 19:51:51,air,96.0
666,2022-09-23 19:53:01,air,97.0
667,2022-09-23 19:54:10,air,96.0
668,2022-09-23 19:55:20,air,96.0
669,2022-09-23 19:56:29,air,97.0
670,2022-09-23 19:57:38,air,96.0
671,2022-09-23 19:58:48,air,96.0
672,2022-09-23 19:59:57,air,97.0
673,2022-09-23 20:01:07,air,97.0
674,2022-09-23 20:02:16,air,97.0
675,2022-09-23 20:03:26,air,97.0
676,2022-09-23 20:04:35,air,97.0
677,2022-09-23 20:05:44,air,96.0
678,2022-09-23 20:06:54,air,96.0
679,2022-09-23 20:08:03,air,96.0
680,2022-09-23 20:09:13,air,96.0
681,2022-09-23 20:10:22,air,96.0
682,2022-09-23 20:11:32,air,96.0
683,2022-09-23 20:12:41,air,97.0
684,2022-09-23 20:13:51,air,96.0
685,2022-09-23 20:15:00,air,97.0
686,2022-09-23 20:16:09,air,97.0
687,2022-09-23 20:17:19,air,97.0
688,2022-09-23 20:18:28,air,96.0
689,2022-09-23 20:19:38,air,97.0
690,2022-09-23 20:20:47,air,97.0
691,2022-09-23 20:21:57,air,96.0
692,2022-09-23 20:23:06,air,97.0
693,2022-09-23 20:24:15,air,97.0
694,2022-09-23 20:25:25,air,97.0
695,2022-09-23 20:26:33,air,96.0
696,2022-09-23 20:27:43,air,96.0
697,2022-09-23 20:28:52,air,97.0
698,2022-09-23 20:30:02,air,96.0
699,2022-09-23 20:31:11,air,96.0
700,2022-09-23 20:32:21,air,96.0
701,2022-09-23 20:33:30,air,96.0
702,2022-09-23 20:34:39,air,97.0
703,2022-09-23 20:35:49,air,97.0
704,2022-09-23 20:36:58,air,96.0
705,2022-09-23 20:38:08,air,96.0
706,2022-09-23 20:39:17,air,97.0
707,2022-09-23 20:40:27,air,97.0
708,2022-09-23 20:41:36,air,96.0
709,2022-09-23 20:42:45,air,96.0
710,2022-09-23 20:43:55,air,96.0
711,2022-09-23 20:45:04,air,97.0
712,2022-09-23 20:46:14,air,97.0
713,2022-09-23 20:47:23,air,97.0
714,2022-09-23 20:48:33,air,97.0
715,2022-09-23 20:49:42,air,96.0
716,2022-09-23 20:50:51,air,97.0
717,2022-09-23 20:52:01,air,97.0
718,2022-09-23 20:53:10,air,97.0
719,2022-09-23 20:54:20,air,96.0
720,2022-09-23 20:55:29,air,96.0
721,2022-09-23 20:56:39,air,97.0
722,2022-09-23 20:57:48,air,97.0
723,2022-09-23 20:58:58,air,96.0
724,2022-09-23 21:00:07,air,97.0
725,2022-09-23 21:01:16,air,97.0
726,2022-09-23 21:02:26,air,96.0
727,2022-09-23 21:03:35,air,96.0
728,2022-09-23 21:04:45,air,96.0